owner,sensor,date,latitude,longitude,vertical_datum,wind_speed,wind_to_direction,wind_speed_of_gust,qcFlag 
DISL,ioos:station:DISL:CATA:1,2016-07-01T00:00:00Z,30.3085,-88.1395,0.0,3.4,230.0,99.0,'11111222,11111222,11144222' 
DISL,ioos:station:DISL:CATA:1,2016-07-01T00:30:00Z,30.3085,-88.1395,0.0,2.1,215.0,99.0,'11111222,11111222,11144222' 
DISL,ioos:station:DISL:CATA:1,2016-07-01T01:30:00Z,30.3085,-88.1395,0.0,2.4,214.0,99.0,'11111222,11111222,11144222' 
DISL,ioos:station:DISL:CATA:1,2016-07-01T02:00:00Z,30.3085,-88.1395,0.0,2.8,213.0,99.0,'11111222,11111222,11144222' 
DISL,ioos:station:DISL:CATA:1,2016-07-01T02:30:00Z,30.3085,-88.1395,0.0,3.1,212.0,99.0,'11111222,11111222,11144222' 
DISL,ioos:station:DISL:CATA:1,2016-07-01T03:00:00Z,30.3085,-88.1395,0.0,3.0,219.0,99.0,'11111222,11111222,11144222' 
DISL,ioos:station:DISL:CATA:1,2016-07-01T03:30:00Z,30.3085,-88.1395,0.0,1.9,179.0,99.0,'11111222,11111222,11144222' 
DISL,ioos:station:DISL:CATA:1,2016-07-01T04:00:00Z,30.3085,-88.1395,0.0,1.9,180.0,99.0,'11111222,11111222,11144222' 
DISL,ioos:station:DISL:CATA:1,2016-07-01T04:30:00Z,30.3085,-88.1395,0.0,2.8,180.0,99.0,'11111222,11111222,11144222' 
DISL,ioos:station:DISL:CATA:1,2016-07-01T05:00:00Z,30.3085,-88.1395,0.0,3.4,176.0,99.0,'11111222,11111222,11144222' 
DISL,ioos:station:DISL:CATA:1,2016-07-01T05:30:00Z,30.3085,-88.1395,0.0,4.3,176.0,99.0,'11111222,11111222,11144222' 
DISL,ioos:station:DISL:CATA:1,2016-07-01T06:30:00Z,30.3085,-88.1395,0.0,4.3,185.0,99.0,'11111222,11111222,11144222' 
DISL,ioos:station:DISL:CATA:1,2016-07-01T07:00:00Z,30.3085,-88.1395,0.0,4.1,189.0,99.0,'11111222,11111222,11144222' 
DISL,ioos:station:DISL:CATA:1,2016-07-01T07:30:00Z,30.3085,-88.1395,0.0,3.9,216.0,99.0,'11111222,11111222,11144222' 
DISL,ioos:station:DISL:CATA:1,2016-07-01T08:00:00Z,30.3085,-88.1395,0.0,6.1,214.0,99.0,'11111222,11111222,11144222' 
DISL,ioos:station:DISL:CATA:1,2016-07-01T08:30:00Z,30.3085,-88.1395,0.0,3.7,236.0,99.0,'11111222,11111222,11144222' 
DISL,ioos:station:DISL:CATA:1,2016-07-01T09:00:00Z,30.3085,-88.1395,0.0,3.2,263.0,99.0,'11111222,11111222,11144222' 
DISL,ioos:station:DISL:CATA:1,2016-07-01T09:30:00Z,30.3085,-88.1395,0.0,3.4,234.0,99.0,'11111222,11111222,11144222' 
DISL,ioos:station:DISL:CATA:1,2016-07-01T10:00:00Z,30.3085,-88.1395,0.0,3.4,246.0,99.0,'11111222,11111222,11144222' 
DISL,ioos:station:DISL:CATA:1,2016-07-01T10:30:00Z,30.3085,-88.1395,0.0,3.8,239.0,99.0,'11111222,11111222,11144222' 
DISL,ioos:station:DISL:CATA:1,2016-07-01T11:00:00Z,30.3085,-88.1395,0.0,3.0,252.0,99.0,'11111222,11111222,11144222' 
DISL,ioos:station:DISL:CATA:1,2016-07-01T11:30:00Z,30.3085,-88.1395,0.0,3.0,254.0,99.0,'11111222,11111222,11144222' 
DISL,ioos:station:DISL:CATA:1,2016-07-01T12:00:00Z,30.3085,-88.1395,0.0,2.1,6.0,99.0,'11111222,11111222,11144222' 
DISL,ioos:station:DISL:CATA:1,2016-07-01T12:30:00Z,30.3085,-88.1395,0.0,1.2,38.0,99.0,'11111222,11111222,11144222' 
DISL,ioos:station:DISL:CATA:1,2016-07-01T13:00:00Z,30.3085,-88.1395,0.0,1.0,46.0,99.0,'11111222,11111222,11144222' 
DISL,ioos:station:DISL:CATA:1,2016-07-01T13:30:00Z,30.3085,-88.1395,0.0,0.1,145.0,99.0,'11111222,11111222,11144222' 
DISL,ioos:station:DISL:CATA:1,2016-07-01T14:00:00Z,30.3085,-88.1395,0.0,1.1,340.0,99.0,'11111222,11111222,11144222' 
DISL,ioos:station:DISL:CATA:1,2016-07-01T14:30:00Z,30.3085,-88.1395,0.0,0.0,257.0,99.0,'11111222,11111222,11144222' 
DISL,ioos:station:DISL:CATA:1,2016-07-01T15:00:00Z,30.3085,-88.1395,0.0,0.2,241.0,99.0,'11111222,11111222,11144222' 
DISL,ioos:station:DISL:CATA:1,2016-07-01T15:30:00Z,30.3085,-88.1395,0.0,0.6,112.0,99.0,'11111222,11111222,11144222' 
DISL,ioos:station:DISL:CATA:1,2016-07-01T16:00:00Z,30.3085,-88.1395,0.0,1.9,68.0,99.0,'11111222,11111222,11144222' 
DISL,ioos:station:DISL:CATA:1,2016-07-01T16:30:00Z,30.3085,-88.1395,0.0,2.1,76.0,99.0,'11111222,11111222,11144222' 
DISL,ioos:station:DISL:CATA:1,2016-07-01T17:00:00Z,30.3085,-88.1395,0.0,2.3,81.0,99.0,'11111222,11111222,11144222' 
DISL,ioos:station:DISL:CATA:1,2016-07-01T17:30:00Z,30.3085,-88.1395,0.0,2.0,106.0,99.0,'11111222,11111222,11144222' 
DISL,ioos:station:DISL:CATA:1,2016-07-01T18:00:00Z,30.3085,-88.1395,0.0,2.2,119.0,99.0,'11111222,11111222,11144222' 
DISL,ioos:station:DISL:CATA:1,2016-07-01T18:30:00Z,30.3085,-88.1395,0.0,1.6,121.0,99.0,'11111222,11111222,11144222' 
DISL,ioos:station:DISL:CATA:1,2016-07-01T19:00:00Z,30.3085,-88.1395,0.0,1.3,109.0,99.0,'11111222,11111222,11144222' 
DISL,ioos:station:DISL:CATA:1,2016-07-01T19:30:00Z,30.3085,-88.1395,0.0,1.0,108.0,99.0,'11111222,11111222,11144222' 
DISL,ioos:station:DISL:CATA:1,2016-07-01T20:00:00Z,30.3085,-88.1395,0.0,1.6,155.0,99.0,'11111222,11111222,11144222' 
DISL,ioos:station:DISL:CATA:1,2016-07-01T20:30:00Z,30.3085,-88.1395,0.0,2.2,192.0,99.0,'11111222,11111222,11144222' 
DISL,ioos:station:DISL:CATA:1,2016-07-01T21:00:00Z,30.3085,-88.1395,0.0,3.9,229.0,99.0,'11111222,11111222,11144222' 
DISL,ioos:station:DISL:CATA:1,2016-07-01T21:30:00Z,30.3085,-88.1395,0.0,3.8,229.0,99.0,'11111222,11111222,11144222' 
DISL,ioos:station:DISL:CATA:1,2016-07-01T22:00:00Z,30.3085,-88.1395,0.0,4.3,248.0,99.0,'11111222,11111222,11144222' 
DISL,ioos:station:DISL:CATA:1,2016-07-01T22:30:00Z,30.3085,-88.1395,0.0,4.5,236.0,99.0,'11111222,11111222,11144222' 
DISL,ioos:station:DISL:CATA:1,2016-07-01T23:00:00Z,30.3085,-88.1395,0.0,5.1,248.0,99.0,'11111222,11111222,11144222' 
DISL,ioos:station:DISL:CATA:1,2016-07-01T23:30:00Z,30.3085,-88.1395,0.0,4.9,245.0,99.0,'11111222,11111222,11144222' 
DISL,ioos:station:DISL:CATA:1,2016-07-02T00:00:00Z,30.3085,-88.1395,0.0,4.6,239.0,99.0,'11111222,11111222,11144222' 
DISL,ioos:station:DISL:CATA:1,2016-07-02T00:30:00Z,30.3085,-88.1395,0.0,4.0,262.0,99.0,'11111222,11111222,11144222' 
DISL,ioos:station:DISL:CATA:1,2016-07-02T01:00:00Z,30.3085,-88.1395,0.0,4.0,254.0,99.0,'11111222,11111222,11144222' 
DISL,ioos:station:DISL:CATA:1,2016-07-02T01:30:00Z,30.3085,-88.1395,0.0,4.0,253.0,99.0,'11111222,11111222,11144222' 
DISL,ioos:station:DISL:CATA:1,2016-07-02T02:00:00Z,30.3085,-88.1395,0.0,4.4,236.0,99.0,'11111222,11111222,11144222' 
DISL,ioos:station:DISL:CATA:1,2016-07-02T02:30:00Z,30.3085,-88.1395,0.0,3.9,242.0,99.0,'11111222,11111222,11144222' 
DISL,ioos:station:DISL:CATA:1,2016-07-02T03:00:00Z,30.3085,-88.1395,0.0,4.4,234.0,99.0,'11111222,11111222,11144222' 
DISL,ioos:station:DISL:CATA:1,2016-07-02T03:30:00Z,30.3085,-88.1395,0.0,4.4,235.0,99.0,'11111222,11111222,11144222' 
DISL,ioos:station:DISL:CATA:1,2016-07-02T04:00:00Z,30.3085,-88.1395,0.0,4.3,246.0,99.0,'11111222,11111222,11144222' 
DISL,ioos:station:DISL:CATA:1,2016-07-02T04:30:00Z,30.3085,-88.1395,0.0,3.8,248.0,99.0,'11111222,11111222,11144222' 
DISL,ioos:station:DISL:CATA:1,2016-07-02T05:00:00Z,30.3085,-88.1395,0.0,3.8,248.0,99.0,'11111222,11111222,11144222' 
DISL,ioos:station:DISL:CATA:1,2016-07-02T05:30:00Z,30.3085,-88.1395,0.0,4.4,255.0,99.0,'11111222,11111222,11144222' 
DISL,ioos:station:DISL:CATA:1,2016-07-02T06:30:00Z,30.3085,-88.1395,0.0,4.3,243.0,99.0,'11111222,11111222,11144222' 
DISL,ioos:station:DISL:CATA:1,2016-07-02T07:00:00Z,30.3085,-88.1395,0.0,4.4,248.0,99.0,'11111222,11111222,11144222' 
DISL,ioos:station:DISL:CATA:1,2016-07-02T07:30:00Z,30.3085,-88.1395,0.0,4.2,259.0,99.0,'11111222,11111222,11144222' 
DISL,ioos:station:DISL:CATA:1,2016-07-02T08:00:00Z,30.3085,-88.1395,0.0,4.2,255.0,99.0,'11111222,11111222,11144222' 
DISL,ioos:station:DISL:CATA:1,2016-07-02T08:30:00Z,30.3085,-88.1395,0.0,4.2,260.0,99.0,'11111222,11111222,11144222' 
DISL,ioos:station:DISL:CATA:1,2016-07-02T09:00:00Z,30.3085,-88.1395,0.0,4.3,273.0,99.0,'11111222,11111222,11144222' 
DISL,ioos:station:DISL:CATA:1,2016-07-02T09:30:00Z,30.3085,-88.1395,0.0,4.7,275.0,99.0,'11111222,11111222,11144222' 
DISL,ioos:station:DISL:CATA:1,2016-07-02T10:00:00Z,30.3085,-88.1395,0.0,4.8,286.0,99.0,'11111222,11111222,11144222' 
DISL,ioos:station:DISL:CATA:1,2016-07-02T10:30:00Z,30.3085,-88.1395,0.0,2.8,324.0,99.0,'11111222,11111222,11144222' 
DISL,ioos:station:DISL:CATA:1,2016-07-02T11:00:00Z,30.3085,-88.1395,0.0,3.6,327.0,99.0,'11111222,11111222,11144222' 
DISL,ioos:station:DISL:CATA:1,2016-07-02T11:30:00Z,30.3085,-88.1395,0.0,3.5,323.0,99.0,'11111222,11111222,11144222' 
DISL,ioos:station:DISL:CATA:1,2016-07-02T12:00:00Z,30.3085,-88.1395,0.0,4.3,326.0,99.0,'11111222,11111222,11144222' 
DISL,ioos:station:DISL:CATA:1,2016-07-02T12:30:00Z,30.3085,-88.1395,0.0,5.2,316.0,99.0,'11111222,11111222,11144222' 
DISL,ioos:station:DISL:CATA:1,2016-07-02T13:00:00Z,30.3085,-88.1395,0.0,5.6,317.0,99.0,'11111222,11111222,11144222' 
DISL,ioos:station:DISL:CATA:1,2016-07-02T13:30:00Z,30.3085,-88.1395,0.0,5.1,310.0,99.0,'11111222,11111222,11144222' 
DISL,ioos:station:DISL:CATA:1,2016-07-02T14:00:00Z,30.3085,-88.1395,0.0,5.4,301.0,99.0,'11111222,11111222,11144222' 
DISL,ioos:station:DISL:CATA:1,2016-07-02T14:30:00Z,30.3085,-88.1395,0.0,4.4,295.0,99.0,'11111222,11111222,11144222' 
DISL,ioos:station:DISL:CATA:1,2016-07-02T15:00:00Z,30.3085,-88.1395,0.0,3.4,283.0,99.0,'11111222,11111222,11144222' 
DISL,ioos:station:DISL:CATA:1,2016-07-02T15:30:00Z,30.3085,-88.1395,0.0,3.0,272.0,99.0,'11111222,11111222,11144222' 
DISL,ioos:station:DISL:CATA:1,2016-07-02T16:00:00Z,30.3085,-88.1395,0.0,3.4,261.0,99.0,'11111222,11111222,11144222' 
DISL,ioos:station:DISL:CATA:1,2016-07-02T16:30:00Z,30.3085,-88.1395,0.0,3.6,246.0,99.0,'11111222,11111222,11144222' 
DISL,ioos:station:DISL:CATA:1,2016-07-02T17:00:00Z,30.3085,-88.1395,0.0,3.9,246.0,99.0,'11111222,11111222,11144222' 
DISL,ioos:station:DISL:CATA:1,2016-07-02T17:30:00Z,30.3085,-88.1395,0.0,4.5,233.0,99.0,'11111222,11111222,11144222' 
DISL,ioos:station:DISL:CATA:1,2016-07-02T18:00:00Z,30.3085,-88.1395,0.0,4.9,231.0,99.0,'11111222,11111222,11144222' 
DISL,ioos:station:DISL:CATA:1,2016-07-02T18:30:00Z,30.3085,-88.1395,0.0,5.6,225.0,99.0,'11111222,11111222,11144222' 
DISL,ioos:station:DISL:CATA:1,2016-07-02T19:00:00Z,30.3085,-88.1395,0.0,5.6,219.0,99.0,'11111222,11111222,11144222' 
DISL,ioos:station:DISL:CATA:1,2016-07-02T19:30:00Z,30.3085,-88.1395,0.0,5.2,220.0,99.0,'11111222,11111222,11144222' 
DISL,ioos:station:DISL:CATA:1,2016-07-02T20:00:00Z,30.3085,-88.1395,0.0,5.6,222.0,99.0,'11111222,11111222,11144222' 
DISL,ioos:station:DISL:CATA:1,2016-07-02T20:30:00Z,30.3085,-88.1395,0.0,5.8,214.0,99.0,'11111222,11111222,11144222' 
DISL,ioos:station:DISL:CATA:1,2016-07-02T21:00:00Z,30.3085,-88.1395,0.0,5.6,220.0,99.0,'11111222,11111222,11144222' 
DISL,ioos:station:DISL:CATA:1,2016-07-02T21:30:00Z,30.3085,-88.1395,0.0,5.7,223.0,99.0,'11111222,11111222,11144222' 
DISL,ioos:station:DISL:CATA:1,2016-07-02T22:00:00Z,30.3085,-88.1395,0.0,6.4,221.0,99.0,'11111222,11111222,11144222' 
DISL,ioos:station:DISL:CATA:1,2016-07-02T22:30:00Z,30.3085,-88.1395,0.0,6.3,230.0,99.0,'11111222,11111222,11144222' 
DISL,ioos:station:DISL:CATA:1,2016-07-02T23:00:00Z,30.3085,-88.1395,0.0,6.7,233.0,99.0,'11111222,11111222,11144222' 
DISL,ioos:station:DISL:CATA:1,2016-07-02T23:30:00Z,30.3085,-88.1395,0.0,6.7,236.0,99.0,'11111222,11111222,11144222' 
DISL,ioos:station:DISL:CATA:1,2016-07-03T00:00:00Z,30.3085,-88.1395,0.0,6.3,240.0,99.0,'11111222,11111222,11144222' 
DISL,ioos:station:DISL:CATA:1,2016-07-03T00:30:00Z,30.3085,-88.1395,0.0,6.1,233.0,99.0,'11111222,11111222,11144222' 
DISL,ioos:station:DISL:CATA:1,2016-07-03T01:00:00Z,30.3085,-88.1395,0.0,6.0,235.0,99.0,'11111222,11111222,11144222' 
DISL,ioos:station:DISL:CATA:1,2016-07-03T01:30:00Z,30.3085,-88.1395,0.0,5.9,239.0,99.0,'11111222,11111222,11144222' 
DISL,ioos:station:DISL:CATA:1,2016-07-03T02:00:00Z,30.3085,-88.1395,0.0,5.9,228.0,99.0,'11111222,11111222,11144222' 
DISL,ioos:station:DISL:CATA:1,2016-07-03T02:30:00Z,30.3085,-88.1395,0.0,5.8,225.0,99.0,'11111222,11111222,11144222' 
DISL,ioos:station:DISL:CATA:1,2016-07-03T03:00:00Z,30.3085,-88.1395,0.0,5.9,224.0,99.0,'11111222,11111222,11144222' 
DISL,ioos:station:DISL:CATA:1,2016-07-03T03:30:00Z,30.3085,-88.1395,0.0,5.9,229.0,99.0,'11111222,11111222,11144222' 
DISL,ioos:station:DISL:CATA:1,2016-07-03T04:00:00Z,30.3085,-88.1395,0.0,5.9,227.0,99.0,'11111222,11111222,11144222' 
DISL,ioos:station:DISL:CATA:1,2016-07-03T04:30:00Z,30.3085,-88.1395,0.0,5.6,230.0,99.0,'11111222,11111222,11144222' 
DISL,ioos:station:DISL:CATA:1,2016-07-03T05:00:00Z,30.3085,-88.1395,0.0,6.1,228.0,99.0,'11111222,11111222,11144222' 
DISL,ioos:station:DISL:CATA:1,2016-07-03T05:30:00Z,30.3085,-88.1395,0.0,5.7,233.0,99.0,'11111222,11111222,11144222' 
DISL,ioos:station:DISL:CATA:1,2016-07-03T06:30:00Z,30.3085,-88.1395,0.0,6.0,238.0,99.0,'11111222,11111222,11144222' 
DISL,ioos:station:DISL:CATA:1,2016-07-03T07:00:00Z,30.3085,-88.1395,0.0,6.4,239.0,99.0,'11111222,11111222,11144222' 
DISL,ioos:station:DISL:CATA:1,2016-07-03T07:30:00Z,30.3085,-88.1395,0.0,6.2,240.0,99.0,'11111222,11111222,11144222' 
DISL,ioos:station:DISL:CATA:1,2016-07-03T08:00:00Z,30.3085,-88.1395,0.0,6.0,241.0,99.0,'11111222,11111222,11144222' 
DISL,ioos:station:DISL:CATA:1,2016-07-03T08:30:00Z,30.3085,-88.1395,0.0,6.2,238.0,99.0,'11111222,11111222,11144222' 
DISL,ioos:station:DISL:CATA:1,2016-07-03T09:00:00Z,30.3085,-88.1395,0.0,5.8,237.0,99.0,'11111222,11111222,11144222' 
DISL,ioos:station:DISL:CATA:1,2016-07-03T09:30:00Z,30.3085,-88.1395,0.0,4.9,243.0,99.0,'11111222,11111222,11144222' 
DISL,ioos:station:DISL:CATA:1,2016-07-03T10:00:00Z,30.3085,-88.1395,0.0,4.6,255.0,99.0,'11111222,11111222,11144222' 
DISL,ioos:station:DISL:CATA:1,2016-07-03T10:30:00Z,30.3085,-88.1395,0.0,4.6,250.0,99.0,'11111222,11111222,11144222' 
DISL,ioos:station:DISL:CATA:1,2016-07-03T11:00:00Z,30.3085,-88.1395,0.0,4.3,248.0,99.0,'11111222,11111222,11144222' 
DISL,ioos:station:DISL:CATA:1,2016-07-03T11:30:00Z,30.3085,-88.1395,0.0,2.9,345.0,99.0,'11111222,11111222,11144222' 
DISL,ioos:station:DISL:CATA:1,2016-07-03T12:00:00Z,30.3085,-88.1395,0.0,3.3,336.0,99.0,'11111222,11111222,11144222' 
DISL,ioos:station:DISL:CATA:1,2016-07-03T12:30:00Z,30.3085,-88.1395,0.0,3.2,332.0,99.0,'11111222,11111222,11144222' 
DISL,ioos:station:DISL:CATA:1,2016-07-03T13:00:00Z,30.3085,-88.1395,0.0,2.8,329.0,99.0,'11111222,11111222,11144222' 
DISL,ioos:station:DISL:CATA:1,2016-07-03T13:30:00Z,30.3085,-88.1395,0.0,2.1,307.0,99.0,'11111222,11111222,11144222' 
DISL,ioos:station:DISL:CATA:1,2016-07-03T14:00:00Z,30.3085,-88.1395,0.0,0.9,305.0,99.0,'11111222,11111222,11144222' 
DISL,ioos:station:DISL:CATA:1,2016-07-03T14:30:00Z,30.3085,-88.1395,0.0,0.5,220.0,99.0,'11111222,11111222,11144222' 
DISL,ioos:station:DISL:CATA:1,2016-07-03T15:00:00Z,30.3085,-88.1395,0.0,1.4,167.0,99.0,'11111222,11111222,11144222' 
DISL,ioos:station:DISL:CATA:1,2016-07-03T15:30:00Z,30.3085,-88.1395,0.0,1.5,185.0,99.0,'11111222,11111222,11144222' 
DISL,ioos:station:DISL:CATA:1,2016-07-03T16:00:00Z,30.3085,-88.1395,0.0,1.0,161.0,99.0,'11111222,11111222,11144222' 
DISL,ioos:station:DISL:CATA:1,2016-07-03T16:30:00Z,30.3085,-88.1395,0.0,4.4,195.0,99.0,'11111222,11111222,11144222' 
DISL,ioos:station:DISL:CATA:1,2016-07-03T17:00:00Z,30.3085,-88.1395,0.0,4.9,196.0,99.0,'11111222,11111222,11144222' 
DISL,ioos:station:DISL:CATA:1,2016-07-03T17:30:00Z,30.3085,-88.1395,0.0,4.7,193.0,99.0,'11111222,11111222,11144222' 
DISL,ioos:station:DISL:CATA:1,2016-07-03T18:00:00Z,30.3085,-88.1395,0.0,4.0,200.0,99.0,'11111222,11111222,11144222' 
DISL,ioos:station:DISL:CATA:1,2016-07-03T18:30:00Z,30.3085,-88.1395,0.0,3.6,206.0,99.0,'11111222,11111222,11144222' 
DISL,ioos:station:DISL:CATA:1,2016-07-03T19:00:00Z,30.3085,-88.1395,0.0,3.4,223.0,99.0,'11111222,11111222,11144222' 
DISL,ioos:station:DISL:CATA:1,2016-07-03T19:30:00Z,30.3085,-88.1395,0.0,3.4,233.0,99.0,'11111222,11111222,11144222' 
DISL,ioos:station:DISL:CATA:1,2016-07-03T20:00:00Z,30.3085,-88.1395,0.0,4.9,226.0,99.0,'11111222,11111222,11144222' 
DISL,ioos:station:DISL:CATA:1,2016-07-03T20:30:00Z,30.3085,-88.1395,0.0,5.2,230.0,99.0,'11111222,11111222,11144222' 
DISL,ioos:station:DISL:CATA:1,2016-07-03T21:00:00Z,30.3085,-88.1395,0.0,6.2,217.0,99.0,'11111222,11111222,11144222' 
DISL,ioos:station:DISL:CATA:1,2016-07-03T21:30:00Z,30.3085,-88.1395,0.0,6.4,218.0,99.0,'11111222,11111222,11144222' 
DISL,ioos:station:DISL:CATA:1,2016-07-03T22:00:00Z,30.3085,-88.1395,0.0,6.7,213.0,99.0,'11111222,11111222,11144222' 
DISL,ioos:station:DISL:CATA:1,2016-07-03T22:30:00Z,30.3085,-88.1395,0.0,7.2,221.0,99.0,'11111222,11111222,11144222' 
DISL,ioos:station:DISL:CATA:1,2016-07-03T23:00:00Z,30.3085,-88.1395,0.0,7.3,231.0,99.0,'11111222,11111222,11144222' 
DISL,ioos:station:DISL:CATA:1,2016-07-03T23:30:00Z,30.3085,-88.1395,0.0,6.3,223.0,99.0,'11111222,11111222,11144222' 
DISL,ioos:station:DISL:CATA:1,2016-07-04T00:00:00Z,30.3085,-88.1395,0.0,5.8,223.0,99.0,'11111222,11111222,11144222' 
DISL,ioos:station:DISL:CATA:1,2016-07-04T00:30:00Z,30.3085,-88.1395,0.0,5.8,229.0,99.0,'11111222,11111222,11144222' 
DISL,ioos:station:DISL:CATA:1,2016-07-04T01:00:00Z,30.3085,-88.1395,0.0,5.6,227.0,99.0,'11111222,11111222,11144222' 
DISL,ioos:station:DISL:CATA:1,2016-07-04T01:30:00Z,30.3085,-88.1395,0.0,6.0,227.0,99.0,'11111222,11111222,11144222' 
DISL,ioos:station:DISL:CATA:1,2016-07-04T02:00:00Z,30.3085,-88.1395,0.0,6.4,235.0,99.0,'11111222,11111222,11144222' 
DISL,ioos:station:DISL:CATA:1,2016-07-04T02:30:00Z,30.3085,-88.1395,0.0,6.4,225.0,99.0,'11111222,11111222,11144222' 
DISL,ioos:station:DISL:CATA:1,2016-07-04T03:00:00Z,30.3085,-88.1395,0.0,7.3,220.0,99.0,'11111222,11111222,11144222' 
DISL,ioos:station:DISL:CATA:1,2016-07-04T03:30:00Z,30.3085,-88.1395,0.0,7.4,221.0,99.0,'11111222,11111222,11144222' 
DISL,ioos:station:DISL:CATA:1,2016-07-04T04:00:00Z,30.3085,-88.1395,0.0,7.9,213.0,99.0,'11111222,11111222,11144222' 
DISL,ioos:station:DISL:CATA:1,2016-07-04T04:30:00Z,30.3085,-88.1395,0.0,7.9,220.0,99.0,'11111222,11111222,11144222' 
DISL,ioos:station:DISL:CATA:1,2016-07-04T05:00:00Z,30.3085,-88.1395,0.0,7.7,222.0,99.0,'11111222,11111222,11144222' 
DISL,ioos:station:DISL:CATA:1,2016-07-04T05:30:00Z,30.3085,-88.1395,0.0,7.6,223.0,99.0,'11111222,11111222,11144222' 
DISL,ioos:station:DISL:CATA:1,2016-07-04T06:30:00Z,30.3085,-88.1395,0.0,8.7,226.0,99.0,'11111222,11111222,11144222' 
DISL,ioos:station:DISL:CATA:1,2016-07-04T07:00:00Z,30.3085,-88.1395,0.0,9.1,229.0,99.0,'11111222,11111222,11144222' 
DISL,ioos:station:DISL:CATA:1,2016-07-04T07:30:00Z,30.3085,-88.1395,0.0,9.0,237.0,99.0,'11111222,11111222,11144222' 
DISL,ioos:station:DISL:CATA:1,2016-07-04T08:00:00Z,30.3085,-88.1395,0.0,8.3,240.0,99.0,'11111222,11111222,11144222' 
DISL,ioos:station:DISL:CATA:1,2016-07-04T08:30:00Z,30.3085,-88.1395,0.0,8.6,243.0,99.0,'11111222,11111222,11144222' 
DISL,ioos:station:DISL:CATA:1,2016-07-04T09:00:00Z,30.3085,-88.1395,0.0,8.2,242.0,99.0,'11111222,11111222,11144222' 
DISL,ioos:station:DISL:CATA:1,2016-07-04T09:30:00Z,30.3085,-88.1395,0.0,8.4,247.0,99.0,'11111222,11111222,11144222' 
DISL,ioos:station:DISL:CATA:1,2016-07-04T10:00:00Z,30.3085,-88.1395,0.0,8.2,248.0,99.0,'11111222,11111222,11144222' 
DISL,ioos:station:DISL:CATA:1,2016-07-04T10:30:00Z,30.3085,-88.1395,0.0,8.5,250.0,99.0,'11111222,11111222,11144222' 
DISL,ioos:station:DISL:CATA:1,2016-07-04T11:00:00Z,30.3085,-88.1395,0.0,7.9,245.0,99.0,'11111222,11111222,11144222' 
DISL,ioos:station:DISL:CATA:1,2016-07-04T11:30:00Z,30.3085,-88.1395,0.0,8.4,248.0,99.0,'11111222,11111222,11144222' 
DISL,ioos:station:DISL:CATA:1,2016-07-04T12:00:00Z,30.3085,-88.1395,0.0,7.7,243.0,99.0,'11111222,11111222,11144222' 
DISL,ioos:station:DISL:CATA:1,2016-07-04T12:30:00Z,30.3085,-88.1395,0.0,7.1,242.0,99.0,'11111222,11111222,11144222' 
DISL,ioos:station:DISL:CATA:1,2016-07-04T13:00:00Z,30.3085,-88.1395,0.0,7.5,240.0,99.0,'11111222,11111222,11144222' 
DISL,ioos:station:DISL:CATA:1,2016-07-04T13:30:00Z,30.3085,-88.1395,0.0,7.1,231.0,99.0,'11111222,11111222,11144222' 
DISL,ioos:station:DISL:CATA:1,2016-07-04T14:00:00Z,30.3085,-88.1395,0.0,6.8,233.0,99.0,'11111222,11111222,11144222' 
DISL,ioos:station:DISL:CATA:1,2016-07-04T14:30:00Z,30.3085,-88.1395,0.0,7.7,225.0,99.0,'11111222,11111222,11144222' 
DISL,ioos:station:DISL:CATA:1,2016-07-04T15:00:00Z,30.3085,-88.1395,0.0,7.7,235.0,99.0,'11111222,11111222,11144222' 
DISL,ioos:station:DISL:CATA:1,2016-07-04T15:30:00Z,30.3085,-88.1395,0.0,7.2,235.0,99.0,'11111222,11111222,11144222' 
DISL,ioos:station:DISL:CATA:1,2016-07-04T16:00:00Z,30.3085,-88.1395,0.0,7.3,235.0,99.0,'11111222,11111222,11144222' 
DISL,ioos:station:DISL:CATA:1,2016-07-04T16:30:00Z,30.3085,-88.1395,0.0,7.6,235.0,99.0,'11111222,11111222,11144222' 
DISL,ioos:station:DISL:CATA:1,2016-07-04T17:00:00Z,30.3085,-88.1395,0.0,7.0,233.0,99.0,'11111222,11111222,11144222' 
DISL,ioos:station:DISL:CATA:1,2016-07-04T17:30:00Z,30.3085,-88.1395,0.0,6.5,231.0,99.0,'11111222,11111222,11144222' 
DISL,ioos:station:DISL:CATA:1,2016-07-04T18:00:00Z,30.3085,-88.1395,0.0,7.4,243.0,99.0,'11111222,11111222,11144222' 
DISL,ioos:station:DISL:CATA:1,2016-07-04T18:30:00Z,30.3085,-88.1395,0.0,7.0,240.0,99.0,'11111222,11111222,11144222' 
DISL,ioos:station:DISL:CATA:1,2016-07-04T19:00:00Z,30.3085,-88.1395,0.0,7.4,229.0,99.0,'11111222,11111222,11144222' 
DISL,ioos:station:DISL:CATA:1,2016-07-04T19:30:00Z,30.3085,-88.1395,0.0,7.0,232.0,99.0,'11111222,11111222,11144222' 
DISL,ioos:station:DISL:CATA:1,2016-07-04T20:00:00Z,30.3085,-88.1395,0.0,7.3,228.0,99.0,'11111222,11111222,11144222' 
DISL,ioos:station:DISL:CATA:1,2016-07-04T20:30:00Z,30.3085,-88.1395,0.0,7.6,219.0,99.0,'11111222,11111222,11144222' 
DISL,ioos:station:DISL:CATA:1,2016-07-04T21:00:00Z,30.3085,-88.1395,0.0,7.7,226.0,99.0,'11111222,11111222,11144222' 
DISL,ioos:station:DISL:CATA:1,2016-07-04T21:30:00Z,30.3085,-88.1395,0.0,7.5,226.0,99.0,'11111222,11111222,11144222' 
DISL,ioos:station:DISL:CATA:1,2016-07-04T22:00:00Z,30.3085,-88.1395,0.0,8.0,235.0,99.0,'11111222,11111222,11144222' 
DISL,ioos:station:DISL:CATA:1,2016-07-04T22:30:00Z,30.3085,-88.1395,0.0,7.5,225.0,99.0,'11111222,11111222,11144222' 
DISL,ioos:station:DISL:CATA:1,2016-07-04T23:00:00Z,30.3085,-88.1395,0.0,6.8,225.0,99.0,'11111222,11111222,11144222' 
DISL,ioos:station:DISL:CATA:1,2016-07-04T23:30:00Z,30.3085,-88.1395,0.0,7.1,226.0,99.0,'11111222,11111222,11144222' 
DISL,ioos:station:DISL:CATA:1,2016-07-05T00:00:00Z,30.3085,-88.1395,0.0,6.9,220.0,99.0,'11111222,11111222,11144222' 
DISL,ioos:station:DISL:CATA:1,2016-07-05T00:30:00Z,30.3085,-88.1395,0.0,6.6,203.0,99.0,'11111222,11111222,11144222' 
DISL,ioos:station:DISL:CATA:1,2016-07-05T01:00:00Z,30.3085,-88.1395,0.0,7.4,206.0,99.0,'11111222,11111222,11144222' 
DISL,ioos:station:DISL:CATA:1,2016-07-05T01:30:00Z,30.3085,-88.1395,0.0,9.0,195.0,99.0,'11111222,11111222,11144222' 
DISL,ioos:station:DISL:CATA:1,2016-07-05T02:00:00Z,30.3085,-88.1395,0.0,8.2,219.0,99.0,'11111222,11111222,11144222' 
DISL,ioos:station:DISL:CATA:1,2016-07-05T02:30:00Z,30.3085,-88.1395,0.0,8.9,222.0,99.0,'11111222,11111222,11144222' 
DISL,ioos:station:DISL:CATA:1,2016-07-05T03:00:00Z,30.3085,-88.1395,0.0,8.8,232.0,99.0,'11111222,11111222,11144222' 
DISL,ioos:station:DISL:CATA:1,2016-07-05T03:30:00Z,30.3085,-88.1395,0.0,8.5,225.0,99.0,'11111222,11111222,11144222' 
DISL,ioos:station:DISL:CATA:1,2016-07-05T04:00:00Z,30.3085,-88.1395,0.0,7.7,233.0,99.0,'11111222,11111222,11144222' 
DISL,ioos:station:DISL:CATA:1,2016-07-05T04:30:00Z,30.3085,-88.1395,0.0,7.3,232.0,99.0,'11111222,11111222,11144222' 
DISL,ioos:station:DISL:CATA:1,2016-07-05T05:00:00Z,30.3085,-88.1395,0.0,7.5,232.0,99.0,'11111222,11111222,11144222' 
DISL,ioos:station:DISL:CATA:1,2016-07-05T05:30:00Z,30.3085,-88.1395,0.0,7.6,225.0,99.0,'11111222,11111222,11144222' 
DISL,ioos:station:DISL:CATA:1,2016-07-05T06:30:00Z,30.3085,-88.1395,0.0,8.0,224.0,99.0,'11111222,11111222,11144222' 
DISL,ioos:station:DISL:CATA:1,2016-07-05T07:00:00Z,30.3085,-88.1395,0.0,7.6,226.0,99.0,'11111222,11111222,11144222' 
DISL,ioos:station:DISL:CATA:1,2016-07-05T07:30:00Z,30.3085,-88.1395,0.0,7.6,223.0,99.0,'11111222,11111222,11144222' 
DISL,ioos:station:DISL:CATA:1,2016-07-05T08:00:00Z,30.3085,-88.1395,0.0,7.5,225.0,99.0,'11111222,11111222,11144222' 
DISL,ioos:station:DISL:CATA:1,2016-07-05T08:30:00Z,30.3085,-88.1395,0.0,7.7,230.0,99.0,'11111222,11111222,11144222' 